DW0987 Weather Reports


time (UTC)temp
C
wind
direction
speed
KPH
gust
KPH
rain 1hr
cm
rain 24hr
cm
rain mn
cm
humidity
%
barometer
mb
20260906071510 22 343 0.0 0.0 0.00 0.00 0.00 82 1009.1
20260906070006 22 343 0.0 0.0 0.00 0.00 0.00 82 1009.4
20260906064505 22 343 0.0 0.0 0.00 0.00 0.00 82 1009.4
20260906063003 22 343 0.0 0.0 0.00 0.00 0.00 82 1009.7
20260906061502 22 343 0.0 0.0 0.00 0.00 0.00 81 1009.9
20260906060100 22 343 0.0 0.0 0.00 0.00 0.00 81 1009.9
20260906054606 22 343 0.0 0.0 0.00 0.00 0.00 81 1009.9
20260906053100 22 343 0.0 0.0 0.00 0.00 0.00 80 1010.2
20260906051610 22 343 0.0 0.0 0.00 0.00 0.00 80 1010.3
20260906050054 23 343 0.0 0.0 0.00 0.00 0.00 79 1010.4
20260906044603 23 343 0.0 0.0 0.00 0.00 0.00 79 1010.3
20260906043052 23 343 0.0 0.0 0.00 0.00 0.00 79 1010.2
20260906041552 23 343 0.0 0.0 0.00 0.00 0.00 79 1010.5
20260906040124 23 343 0.0 0.0 0.00 0.00 0.00 78 1010.8
20260906034555 23 343 0.0 0.0 0.00 0.00 0.00 77 1010.7
20260906033101 23 343 0.0 0.0 0.00 0.00 0.00 77 1010.8
20260906031545 23 343 0.0 0.0 0.00 0.00 0.00 77 1011.0
20260906030043 23 343 0.0 0.0 0.00 0.00 0.00 75 1010.8
20260906024544 24 343 0.0 0.0 0.00 0.00 0.00 75 1010.6
20260906023042 24 343 0.0 0.0 0.00 0.00 0.00 75 1010.3
20260906021542 24 343 0.0 0.0 0.00 0.00 0.00 74 1010.3
20260906020041 25 343 0.0 0.0 0.00 0.00 0.00 73 1010.4
20260906014540 25 343 0.0 0.0 0.00 0.00 0.00 72 1010.4
20260906013040 25 343 0.0 1.6 0.00 0.00 0.00 72 1010.3
20260906011540 26 343 0.0 1.6 0.00 0.00 0.00 71 1010.2
20260906010039 26 343 0.0 1.6 0.00 0.00 0.00 70 1010.2
20260906004538 26 297 0.0 3.2 0.00 0.00 0.00 68 1010.1
20260906003038 26 310 0.0 0.0 0.00 0.00 0.00 65 1010.0
20260906001539 27 310 0.0 0.0 0.00 0.00 0.00 64 1009.7
20260906000037 27 310 0.0 0.0 0.00 0.00 0.00 63 1009.7
20260905234538 27 310 0.0 0.0 0.00 0.00 0.00 64 1009.6
20260905233037 27 310 0.0 0.0 0.00 0.00 0.00 64 1009.1
20260905231537 27 310 0.0 0.0 0.00 0.00 0.00 64 1008.9
20260905230035 27 310 0.0 0.0 0.00 0.00 0.00 64 1008.9
20260905224606 28 310 0.0 1.6 0.00 0.00 0.00 63 1008.8
20260905223042 28 319 0.0 0.0 0.00 0.00 0.00 62 1008.8
20260905221536 27 353 0.0 3.2 0.00 0.00 0.00 61 1008.7
20260905220033 27 327 1.6 4.8 0.00 0.00 0.00 61 1008.6
20260905214538 28 16 1.6 8.0 0.00 0.00 0.00 62 1008.6
20260905213033 27 292 0.0 4.8 0.00 0.00 0.00 67 1009.0
20260905211542 28 290 0.0 0.0 0.00 0.00 0.00 67 1009.7
20260905210040 30 290 0.0 1.6 0.00 0.00 0.00 63 1009.8
20260905204531 31 64 0.0 1.6 0.00 0.00 0.00 59 1009.3
20260905203030 32 64 1.6 6.4 0.00 0.00 0.00 55 1009.7
20260905201530 33 25 1.6 8.0 0.00 0.00 0.00 53 1009.6
20260905200030 34 341 0.0 1.6 0.00 0.00 0.00 53 1008.7
20260905194529 34 341 0.0 1.6 0.00 0.00 0.00 52 1008.4
20260905193028 35 3 0.0 3.2 0.00 0.00 0.00 51 1008.4
20260905191527 36 311 0.0 8.0 0.00 0.00 0.00 47 1008.7
20260905190026 37 30 0.0 6.4 0.00 0.00 0.00 46 1008.7
20260905184529 36 232 0.0 1.6 0.00 0.00 0.00 47 1009.0
20260905183023 36 314 0.0 4.8 0.00 0.00 0.00 50 1009.1
20260905181519 37 249 0.0 4.8 0.00 0.00 0.00 47 1009.4
20260905180015 36 7 0.0 4.8 0.00 0.00 0.00 47 1009.7
20260905174511 36 22 0.0 6.4 0.00 0.00 0.00 50 1010.0
20260905173007 36 345 0.0 4.8 0.00 0.00 0.00 53 1010.3
20260905171504 36 305 0.0 8.0 0.00 0.00 0.00 52 1010.7
20260905170112 35 299 0.0 4.8 0.00 0.00 0.00 52 1010.9
20260905164606 35 16 0.0 4.8 0.00 0.00 0.00 52 1011.1
20260905163054 35 344 0.0 4.8 0.00 0.00 0.00 56 1011.3
20260905161605 34 49 0.0 4.8 0.00 0.00 0.00 58 1011.4
20260905160046 33 255 0.0 3.2 0.00 0.00 0.00 60 1011.6
20260905154545 33 155 0.0 4.8 0.00 0.00 0.00 62 1011.7
20260905153039 32 315 0.0 6.4 0.00 0.00 0.00 63 1011.8
20260905151536 31 344 0.0 4.8 0.00 0.00 0.00 64 1011.8
20260905150031 31 324 0.0 6.4 0.00 0.00 0.00 66 1011.8
20260905144527 30 268 0.0 4.8 0.00 0.00 0.00 67 1011.9
20260905143023 29 239 0.0 4.8 0.00 0.00 0.00 71 1012.0
20260905141519 28 243 0.0 4.8 0.00 0.00 0.00 74 1012.0
20260905140016 27 305 3.2 6.4 0.00 0.00 0.00 78 1012.0
20260905134517 26 237 0.0 4.8 0.00 0.00 0.00 81 1012.3
20260905133017 25 59 0.0 4.8 0.00 0.00 0.00 82 1012.3
20260905131508 25 351 0.0 3.2 0.00 0.00 0.00 83 1012.3
20260905130007 25 359 0.0 6.4 0.00 0.00 0.00 83 1012.5
20260905124506 24 235 0.0 0.0 0.00 0.00 0.00 84 1012.5
20260905123004 24 349 0.0 4.8 0.00 0.00 0.00 84 1012.5
20260905121503 24 248 0.0 4.8 0.00 0.00 0.00 83 1012.4
20260905120002 24 297 0.0 1.6 0.00 0.00 0.00 83 1012.4
20260905114603 24 290 0.0 0.0 0.00 0.00 0.00 82 1012.2
20260905113059 24 290 0.0 3.2 0.00 0.00 0.00 82 1012.0
20260905111557 24 343 0.0 0.0 0.00 0.00 0.00 81 1011.7
20260905110055 24 358 0.0 0.0 0.00 0.00 0.00 81 1011.5
20260905104554 24 358 0.0 4.8 0.00 0.00 0.00 80 1011.3
20260905103058 25 343 0.0 0.0 0.00 0.00 0.00 80 1011.2
20260905101600 25 343 0.0 0.0 0.00 0.00 0.00 79 1011.0
20260905100117 25 343 0.0 0.0 0.00 0.00 0.00 79 1010.9
20260905094551 25 343 0.0 0.0 0.00 0.00 0.00 79 1010.8
20260905093048 25 343 0.0 0.0 0.00 0.00 0.00 79 1010.8
20260905091556 25 343 0.0 3.2 0.00 0.00 0.00 79 1010.9
20260905090043 25 345 0.0 1.6 0.00 0.00 0.00 78 1011.0
20260905084550 25 345 0.0 1.6 0.00 0.00 0.00 78 1011.1
20260905083103 25 358 0.0 0.0 0.00 0.00 0.00 78 1011.3
20260905081541 25 353 0.0 1.6 0.00 0.00 0.00 78 1011.5
20260905080038 25 349 0.0 0.0 0.00 0.00 0.00 77 1011.5
20260905074537 25 329 0.0 1.6 0.00 0.00 0.00 76 1011.6
20260905073039 26 336 0.0 0.0 0.00 0.00 0.00 75 1011.6